#datetime,building,power
2023-08-07T00:00:00,mcc,43.92
2023-08-07T00:01:00,mcc,42.90
2023-08-07T00:02:00,mcc,42.17
2023-08-07T00:03:00,mcc,43.19
2023-08-07T00:04:00,mcc,42.52
2023-08-07T00:05:00,mcc,43.12
2023-08-07T00:06:00,mcc,44.26
2023-08-07T00:07:00,mcc,44.34
2023-08-07T00:08:00,mcc,44.90
2023-08-07T00:09:00,mcc,56.01
2023-08-07T00:10:00,mcc,56.06
2023-08-07T00:11:00,mcc,57.18
2023-08-07T00:12:00,mcc,53.62
2023-08-07T00:13:00,mcc,44.36
2023-08-07T00:14:00,mcc,46.65
2023-08-07T00:15:00,mcc,45.78
2023-08-07T00:16:00,mcc,44.88
2023-08-07T00:17:00,mcc,43.98
2023-08-07T00:18:00,mcc,44.29
2023-08-07T00:19:00,mcc,43.24
2023-08-07T00:20:00,mcc,42.47
2023-08-07T00:21:00,mcc,44.05
2023-08-07T00:22:00,mcc,43.88
2023-08-07T00:23:00,mcc,43.13
2023-08-07T00:24:00,mcc,42.72
2023-08-07T00:25:00,mcc,43.95
2023-08-07T00:26:00,mcc,43.42
2023-08-07T00:27:00,mcc,46.72
2023-08-07T00:28:00,mcc,45.97
2023-08-07T00:29:00,mcc,44.71
2023-08-07T00:30:00,mcc,45.41
2023-08-07T00:31:00,mcc,45.30
2023-08-07T00:32:00,mcc,46.37
2023-08-07T00:33:00,mcc,46.45
2023-08-07T00:34:00,mcc,46.22
2023-08-07T00:35:00,mcc,47.27
2023-08-07T00:36:00,mcc,44.55
2023-08-07T00:37:00,mcc,45.00
2023-08-07T00:38:00,mcc,42.32
2023-08-07T00:39:00,mcc,41.91
2023-08-07T00:40:00,mcc,41.66
2023-08-07T00:41:00,mcc,40.50
2023-08-07T00:42:00,mcc,41.99
2023-08-07T00:43:00,mcc,43.75
2023-08-07T00:44:00,mcc,41.93
2023-08-07T00:45:00,mcc,42.36
2023-08-07T00:46:00,mcc,42.37
2023-08-07T00:47:00,mcc,41.74
2023-08-07T00:48:00,mcc,42.80
2023-08-07T00:49:00,mcc,41.91
2023-08-07T00:50:00,mcc,43.50
2023-08-07T00:51:00,mcc,42.55
2023-08-07T00:52:00,mcc,44.32
2023-08-07T00:53:00,mcc,44.26
2023-08-07T00:54:00,mcc,45.38
2023-08-07T00:55:00,mcc,45.34
2023-08-07T00:56:00,mcc,44.58
2023-08-07T00:57:00,mcc,42.99
2023-08-07T00:58:00,mcc,42.99
2023-08-07T00:59:00,mcc,41.10
2023-08-07T01:00:00,mcc,41.84
2023-08-07T01:01:00,mcc,42.96
2023-08-07T01:02:00,mcc,43.09
2023-08-07T01:03:00,mcc,41.62
2023-08-07T01:04:00,mcc,41.52
2023-08-07T01:05:00,mcc,42.48
2023-08-07T01:06:00,mcc,45.28
2023-08-07T01:07:00,mcc,43.36
2023-08-07T01:08:00,mcc,43.39
2023-08-07T01:09:00,mcc,42.68
2023-08-07T01:10:00,mcc,43.07
2023-08-07T01:11:00,mcc,43.23
2023-08-07T01:12:00,mcc,43.16
2023-08-07T01:13:00,mcc,43.14
2023-08-07T01:14:00,mcc,42.67
2023-08-07T01:15:00,mcc,42.18
2023-08-07T01:16:00,mcc,41.81
2023-08-07T01:17:00,mcc,41.14
2023-08-07T01:18:00,mcc,41.88
2023-08-07T01:19:00,mcc,42.49
2023-08-07T01:20:00,mcc,42.18
2023-08-07T01:21:00,mcc,42.37
2023-08-07T01:22:00,mcc,43.87
2023-08-07T01:23:00,mcc,42.27
2023-08-07T01:24:00,mcc,43.19
2023-08-07T01:25:00,mcc,43.19
2023-08-07T01:26:00,mcc,43.83
2023-08-07T01:27:00,mcc,43.07
2023-08-07T01:28:00,mcc,43.59
2023-08-07T01:29:00,mcc,40.33
2023-08-07T01:30:00,mcc,40.91
2023-08-07T01:31:00,mcc,49.47
2023-08-07T01:32:00,mcc,40.98
2023-08-07T01:33:00,mcc,39.71
2023-08-07T01:34:00,mcc,39.00
2023-08-07T01:35:00,mcc,39.29
2023-08-07T01:36:00,mcc,39.65
2023-08-07T01:37:00,mcc,42.21
2023-08-07T01:38:00,mcc,42.43
2023-08-07T01:39:00,mcc,42.43
2023-08-07T01:40:00,mcc,40.37
2023-08-07T01:41:00,mcc,40.73
2023-08-07T01:42:00,mcc,39.99
2023-08-07T01:43:00,mcc,42.42
2023-08-07T01:44:00,mcc,42.12
2023-08-07T01:45:00,mcc,43.96
2023-08-07T01:46:00,mcc,41.90
2023-08-07T01:47:00,mcc,40.60
2023-08-07T01:48:00,mcc,40.49
2023-08-07T01:49:00,mcc,40.98
2023-08-07T01:50:00,mcc,49.13
2023-08-07T01:51:00,mcc,40.54
2023-08-07T01:52:00,mcc,39.79
2023-08-07T01:53:00,mcc,42.68
2023-08-07T01:54:00,mcc,42.84
2023-08-07T01:55:00,mcc,44.01
2023-08-07T01:56:00,mcc,45.71
2023-08-07T01:57:00,mcc,44.53
2023-08-07T01:58:00,mcc,44.37
2023-08-07T01:59:00,mcc,43.91
2023-08-07T02:00:00,mcc,42.81
2023-08-07T02:01:00,mcc,42.43
2023-08-07T02:02:00,mcc,42.52
2023-08-07T02:03:00,mcc,42.20
2023-08-07T02:04:00,mcc,41.49
2023-08-07T02:05:00,mcc,42.09
2023-08-07T02:06:00,mcc,41.89
2023-08-07T02:07:00,mcc,40.61
2023-08-07T02:08:00,mcc,40.81
2023-08-07T02:09:00,mcc,40.29
2023-08-07T02:10:00,mcc,43.09
2023-08-07T02:11:00,mcc,41.37
2023-08-07T02:12:00,mcc,42.42
2023-08-07T02:13:00,mcc,42.28
2023-08-07T02:14:00,mcc,43.07
2023-08-07T02:15:00,mcc,42.62
2023-08-07T02:16:00,mcc,43.26
2023-08-07T02:17:00,mcc,44.40
2023-08-07T02:18:00,mcc,42.54
2023-08-07T02:19:00,mcc,42.10
2023-08-07T02:20:00,mcc,43.14
2023-08-07T02:21:00,mcc,44.00
2023-08-07T02:22:00,mcc,42.90
2023-08-07T02:23:00,mcc,43.80
2023-08-07T02:24:00,mcc,43.85
2023-08-07T02:25:00,mcc,44.12
2023-08-07T02:26:00,mcc,46.17
2023-08-07T02:27:00,mcc,46.04
2023-08-07T02:28:00,mcc,54.57
2023-08-07T02:29:00,mcc,44.38
2023-08-07T02:30:00,mcc,42.66
2023-08-07T02:31:00,mcc,40.80
2023-08-07T02:32:00,mcc,41.45
2023-08-07T02:33:00,mcc,39.79
2023-08-07T02:34:00,mcc,40.49
2023-08-07T02:35:00,mcc,40.19
2023-08-07T02:36:00,mcc,41.86
2023-08-07T02:37:00,mcc,40.43
2023-08-07T02:38:00,mcc,39.97
2023-08-07T02:39:00,mcc,40.65
2023-08-07T02:40:00,mcc,41.15
2023-08-07T02:41:00,mcc,41.30
2023-08-07T02:42:00,mcc,40.78
2023-08-07T02:43:00,mcc,40.54
2023-08-07T02:44:00,mcc,42.54
2023-08-07T02:45:00,mcc,42.94
2023-08-07T02:46:00,mcc,43.25
2023-08-07T02:47:00,mcc,50.67
2023-08-07T02:48:00,mcc,43.69
2023-08-07T02:49:00,mcc,41.93
2023-08-07T02:50:00,mcc,42.97
2023-08-07T02:51:00,mcc,43.67
2023-08-07T02:52:00,mcc,44.07
2023-08-07T02:53:00,mcc,42.60
2023-08-07T02:54:00,mcc,44.40
2023-08-07T02:55:00,mcc,44.68
2023-08-07T02:56:00,mcc,44.45
2023-08-07T02:57:00,mcc,45.38
2023-08-07T02:58:00,mcc,46.53
2023-08-07T02:59:00,mcc,46.65
2023-08-07T03:00:00,mcc,46.07
2023-08-07T03:01:00,mcc,40.77
2023-08-07T03:02:00,mcc,40.45
2023-08-07T03:03:00,mcc,40.40
2023-08-07T03:04:00,mcc,42.70
2023-08-07T03:05:00,mcc,42.19
2023-08-07T03:06:00,mcc,49.86
2023-08-07T03:07:00,mcc,41.32
2023-08-07T03:08:00,mcc,41.50
2023-08-07T03:09:00,mcc,41.22
2023-08-07T03:10:00,mcc,41.83
2023-08-07T03:11:00,mcc,41.17
2023-08-07T03:12:00,mcc,41.15
2023-08-07T03:13:00,mcc,41.66
2023-08-07T03:14:00,mcc,42.63
2023-08-07T03:15:00,mcc,43.06
2023-08-07T03:16:00,mcc,55.01
2023-08-07T03:17:00,mcc,53.86
2023-08-07T03:18:00,mcc,52.51
2023-08-07T03:19:00,mcc,42.15
2023-08-07T03:20:00,mcc,42.59
2023-08-07T03:21:00,mcc,40.85
2023-08-07T03:22:00,mcc,41.50
2023-08-07T03:23:00,mcc,41.43
2023-08-07T03:24:00,mcc,49.57
2023-08-07T03:25:00,mcc,42.71
2023-08-07T03:26:00,mcc,43.66
2023-08-07T03:27:00,mcc,44.19
2023-08-07T03:28:00,mcc,45.73
2023-08-07T03:29:00,mcc,42.48
2023-08-07T03:30:00,mcc,42.51
2023-08-07T03:31:00,mcc,41.36
2023-08-07T03:32:00,mcc,41.39
2023-08-07T03:33:00,mcc,39.47
2023-08-07T03:34:00,mcc,40.44
2023-08-07T03:35:00,mcc,41.53
2023-08-07T03:36:00,mcc,41.68
2023-08-07T03:37:00,mcc,42.01
2023-08-07T03:38:00,mcc,41.75
2023-08-07T03:39:00,mcc,39.81
2023-08-07T03:40:00,mcc,39.97
2023-08-07T03:41:00,mcc,40.00
2023-08-07T03:42:00,mcc,39.99
2023-08-07T03:43:00,mcc,41.76
2023-08-07T03:44:00,mcc,41.53
2023-08-07T03:45:00,mcc,42.41
2023-08-07T03:46:00,mcc,40.07
2023-08-07T03:47:00,mcc,41.84
2023-08-07T03:48:00,mcc,41.70
2023-08-07T03:49:00,mcc,40.96
2023-08-07T03:50:00,mcc,41.14
2023-08-07T03:51:00,mcc,50.07
2023-08-07T03:52:00,mcc,48.74
2023-08-07T03:53:00,mcc,49.58
2023-08-07T03:54:00,mcc,41.76
2023-08-07T03:55:00,mcc,41.66
2023-08-07T03:56:00,mcc,44.06
2023-08-07T03:57:00,mcc,42.71
2023-08-07T03:58:00,mcc,40.63
2023-08-07T03:59:00,mcc,40.40
2023-08-07T04:00:00,mcc,40.55
2023-08-07T04:01:00,mcc,40.70
2023-08-07T04:02:00,mcc,49.31
2023-08-07T04:03:00,mcc,42.94
2023-08-07T04:04:00,mcc,41.59
2023-08-07T04:05:00,mcc,42.53
2023-08-07T04:06:00,mcc,42.43
2023-08-07T04:07:00,mcc,42.08
2023-08-07T04:08:00,mcc,41.78
2023-08-07T04:09:00,mcc,40.01
2023-08-07T04:10:00,mcc,37.87
2023-08-07T04:11:00,mcc,38.12
2023-08-07T04:12:00,mcc,38.65
2023-08-07T04:13:00,mcc,39.17
2023-08-07T04:14:00,mcc,39.86
2023-08-07T04:15:00,mcc,40.05
2023-08-07T04:16:00,mcc,40.45
2023-08-07T04:17:00,mcc,42.22
2023-08-07T04:18:00,mcc,43.02
2023-08-07T04:19:00,mcc,41.89
2023-08-07T04:20:00,mcc,41.25
2023-08-07T04:21:00,mcc,51.71
2023-08-07T04:22:00,mcc,45.00
2023-08-07T04:23:00,mcc,45.21
2023-08-07T04:24:00,mcc,45.60
2023-08-07T04:25:00,mcc,44.30
2023-08-07T04:26:00,mcc,41.88
2023-08-07T04:27:00,mcc,43.69
2023-08-07T04:28:00,mcc,41.90
2023-08-07T04:29:00,mcc,41.36
2023-08-07T04:30:00,mcc,42.70
2023-08-07T04:31:00,mcc,41.84
2023-08-07T04:32:00,mcc,43.24
2023-08-07T04:33:00,mcc,42.18
2023-08-07T04:34:00,mcc,40.69
2023-08-07T04:35:00,mcc,41.29
2023-08-07T04:36:00,mcc,41.69
2023-08-07T04:37:00,mcc,41.51
2023-08-07T04:38:00,mcc,40.48
2023-08-07T04:39:00,mcc,40.46
2023-08-07T04:40:00,mcc,40.29
2023-08-07T04:41:00,mcc,38.67
2023-08-07T04:42:00,mcc,39.30
2023-08-07T04:43:00,mcc,39.52
2023-08-07T04:44:00,mcc,38.90
2023-08-07T04:45:00,mcc,39.97
2023-08-07T04:46:00,mcc,40.04
2023-08-07T04:47:00,mcc,42.12
2023-08-07T04:48:00,mcc,43.68
2023-08-07T04:49:00,mcc,43.47
2023-08-07T04:50:00,mcc,42.24
2023-08-07T04:51:00,mcc,42.52
2023-08-07T04:52:00,mcc,42.60
2023-08-07T04:53:00,mcc,43.08
2023-08-07T04:54:00,mcc,44.78
2023-08-07T04:55:00,mcc,44.97
2023-08-07T04:56:00,mcc,44.86
2023-08-07T04:57:00,mcc,43.43
2023-08-07T04:58:00,mcc,43.04
2023-08-07T04:59:00,mcc,50.37
2023-08-07T05:00:00,mcc,42.90
2023-08-07T05:01:00,mcc,42.54
2023-08-07T05:02:00,mcc,42.90
2023-08-07T05:03:00,mcc,41.51
2023-08-07T05:04:00,mcc,44.87
2023-08-07T05:05:00,mcc,42.78
2023-08-07T05:06:00,mcc,43.72
2023-08-07T05:07:00,mcc,43.13
2023-08-07T05:08:00,mcc,43.44
2023-08-07T05:09:00,mcc,41.48
2023-08-07T05:10:00,mcc,40.87
2023-08-07T05:11:00,mcc,40.71
2023-08-07T05:12:00,mcc,40.47
2023-08-07T05:13:00,mcc,40.47
2023-08-07T05:14:00,mcc,41.15
2023-08-07T05:15:00,mcc,39.85
2023-08-07T05:16:00,mcc,41.03
2023-08-07T05:17:00,mcc,41.87
2023-08-07T05:18:00,mcc,42.09
2023-08-07T05:19:00,mcc,42.81
2023-08-07T05:20:00,mcc,43.30
2023-08-07T05:21:00,mcc,43.08
2023-08-07T05:22:00,mcc,44.30
2023-08-07T05:23:00,mcc,44.89
2023-08-07T05:24:00,mcc,45.16
2023-08-07T05:25:00,mcc,45.86
2023-08-07T05:26:00,mcc,53.92
2023-08-07T05:27:00,mcc,43.33
2023-08-07T05:28:00,mcc,45.15
2023-08-07T05:29:00,mcc,44.57
2023-08-07T05:30:00,mcc,44.59
2023-08-07T05:31:00,mcc,44.55
2023-08-07T05:32:00,mcc,43.22
2023-08-07T05:33:00,mcc,43.29
2023-08-07T05:34:00,mcc,43.22
2023-08-07T05:35:00,mcc,40.24
2023-08-07T05:36:00,mcc,39.33
2023-08-07T05:37:00,mcc,39.20
2023-08-07T05:38:00,mcc,40.98
2023-08-07T05:39:00,mcc,40.16
2023-08-07T05:40:00,mcc,38.22
2023-08-07T05:41:00,mcc,37.84
2023-08-07T05:42:00,mcc,38.19
2023-08-07T05:43:00,mcc,38.17
2023-08-07T05:44:00,mcc,39.53
2023-08-07T05:45:00,mcc,39.46
2023-08-07T05:46:00,mcc,39.37
2023-08-07T05:47:00,mcc,38.17
2023-08-07T05:48:00,mcc,39.29
2023-08-07T05:49:00,mcc,39.39
2023-08-07T05:50:00,mcc,39.45
2023-08-07T05:51:00,mcc,40.84
2023-08-07T05:52:00,mcc,40.93
2023-08-07T05:53:00,mcc,39.41
2023-08-07T05:54:00,mcc,40.55
2023-08-07T05:55:00,mcc,42.62
2023-08-07T05:56:00,mcc,43.00
2023-08-07T05:57:00,mcc,43.60
2023-08-07T05:58:00,mcc,42.33
2023-08-07T05:59:00,mcc,40.10
2023-08-07T06:00:00,mcc,40.30
2023-08-07T06:01:00,mcc,42.15
2023-08-07T06:02:00,mcc,43.30
2023-08-07T06:03:00,mcc,42.16
2023-08-07T06:04:00,mcc,50.84
2023-08-07T06:05:00,mcc,41.93
2023-08-07T06:06:00,mcc,41.11
2023-08-07T06:07:00,mcc,41.55
2023-08-07T06:08:00,mcc,40.52
2023-08-07T06:09:00,mcc,39.99
2023-08-07T06:10:00,mcc,40.11
2023-08-07T06:11:00,mcc,38.99
2023-08-07T06:12:00,mcc,40.15
2023-08-07T06:13:00,mcc,39.90
2023-08-07T06:14:00,mcc,50.83
2023-08-07T06:15:00,mcc,66.69
2023-08-07T06:16:00,mcc,69.55
2023-08-07T06:17:00,mcc,68.81
2023-08-07T06:18:00,mcc,66.83
2023-08-07T06:19:00,mcc,66.90
2023-08-07T06:20:00,mcc,68.41
2023-08-07T06:21:00,mcc,69.60
2023-08-07T06:22:00,mcc,69.49
2023-08-07T06:23:00,mcc,77.18
2023-08-07T06:24:00,mcc,68.64
2023-08-07T06:25:00,mcc,67.78
2023-08-07T06:26:00,mcc,67.55
2023-08-07T06:27:00,mcc,68.18
2023-08-07T06:28:00,mcc,68.47
2023-08-07T06:29:00,mcc,69.98
2023-08-07T06:30:00,mcc,69.16
2023-08-07T06:31:00,mcc,61.78
2023-08-07T06:32:00,mcc,63.97
2023-08-07T06:33:00,mcc,70.96
2023-08-07T06:34:00,mcc,70.51
2023-08-07T06:35:00,mcc,70.33
2023-08-07T06:36:00,mcc,68.79
2023-08-07T06:37:00,mcc,68.06
2023-08-07T06:38:00,mcc,67.95
2023-08-07T06:39:00,mcc,67.37
2023-08-07T06:40:00,mcc,69.65
2023-08-07T06:41:00,mcc,68.67
2023-08-07T06:42:00,mcc,66.28
2023-08-07T06:43:00,mcc,58.33
2023-08-07T06:44:00,mcc,58.02
2023-08-07T06:45:00,mcc,64.85
2023-08-07T06:46:00,mcc,66.56
2023-08-07T06:47:00,mcc,65.80
2023-08-07T06:48:00,mcc,67.78
2023-08-07T06:49:00,mcc,68.03
2023-08-07T06:50:00,mcc,59.48
2023-08-07T06:51:00,mcc,59.74
2023-08-07T06:52:00,mcc,60.59
2023-08-07T06:53:00,mcc,60.46
2023-08-07T06:54:00,mcc,68.00
2023-08-07T06:55:00,mcc,57.95
2023-08-07T06:56:00,mcc,59.51
2023-08-07T06:57:00,mcc,60.57
2023-08-07T06:58:00,mcc,64.30
2023-08-07T06:59:00,mcc,64.56
2023-08-07T07:00:00,mcc,64.78
2023-08-07T07:01:00,mcc,72.45
2023-08-07T07:02:00,mcc,58.87
2023-08-07T07:03:00,mcc,57.98
2023-08-07T07:04:00,mcc,60.20
2023-08-07T07:05:00,mcc,69.55
2023-08-07T07:06:00,mcc,62.33
2023-08-07T07:07:00,mcc,62.87
2023-08-07T07:08:00,mcc,72.63
2023-08-07T07:09:00,mcc,64.95
2023-08-07T07:10:00,mcc,79.81
2023-08-07T07:11:00,mcc,62.19
2023-08-07T07:12:00,mcc,59.50
2023-08-07T07:13:00,mcc,67.66
2023-08-07T07:14:00,mcc,67.59
2023-08-07T07:15:00,mcc,67.87
2023-08-07T07:16:00,mcc,60.92
2023-08-07T07:17:00,mcc,70.73
2023-08-07T07:18:00,mcc,60.23
2023-08-07T07:19:00,mcc,62.06
2023-08-07T07:20:00,mcc,61.23
2023-08-07T07:21:00,mcc,59.53
2023-08-07T07:22:00,mcc,60.95
2023-08-07T07:23:00,mcc,61.55
2023-08-07T07:24:00,mcc,78.30
2023-08-07T07:25:00,mcc,59.61
2023-08-07T07:26:00,mcc,58.52
2023-08-07T07:27:00,mcc,66.27
2023-08-07T07:28:00,mcc,57.82
2023-08-07T07:29:00,mcc,68.56
2023-08-07T07:30:00,mcc,68.58
2023-08-07T07:31:00,mcc,70.21
2023-08-07T07:32:00,mcc,68.42
2023-08-07T07:33:00,mcc,74.71
2023-08-07T07:34:00,mcc,74.45
2023-08-07T07:35:00,mcc,75.02
2023-08-07T07:36:00,mcc,68.14
2023-08-07T07:37:00,mcc,70.46
2023-08-07T07:38:00,mcc,69.76
2023-08-07T07:39:00,mcc,68.92
2023-08-07T07:40:00,mcc,62.46
2023-08-07T07:41:00,mcc,76.14
2023-08-07T07:42:00,mcc,59.45
2023-08-07T07:43:00,mcc,57.75
2023-08-07T07:44:00,mcc,59.31
2023-08-07T07:45:00,mcc,59.40
2023-08-07T07:46:00,mcc,59.64
2023-08-07T07:47:00,mcc,61.94
2023-08-07T07:48:00,mcc,76.33
2023-08-07T07:49:00,mcc,60.69
2023-08-07T07:50:00,mcc,61.51
2023-08-07T07:51:00,mcc,61.21
2023-08-07T07:52:00,mcc,62.83
2023-08-07T07:53:00,mcc,63.09
2023-08-07T07:54:00,mcc,79.47
2023-08-07T07:55:00,mcc,63.51
2023-08-07T07:56:00,mcc,62.52
2023-08-07T07:57:00,mcc,64.20
2023-08-07T07:58:00,mcc,64.20
2023-08-07T07:59:00,mcc,64.42
2023-08-07T08:00:00,mcc,64.43
2023-08-07T08:01:00,mcc,67.77
2023-08-07T08:02:00,mcc,64.56
2023-08-07T08:03:00,mcc,65.28
2023-08-07T08:04:00,mcc,66.23
2023-08-07T08:05:00,mcc,67.27
2023-08-07T08:06:00,mcc,65.48
2023-08-07T08:07:00,mcc,81.27
2023-08-07T08:08:00,mcc,64.05
2023-08-07T08:09:00,mcc,64.14
2023-08-07T08:10:00,mcc,64.43
2023-08-07T08:11:00,mcc,64.32
2023-08-07T08:12:00,mcc,63.73
2023-08-07T08:13:00,mcc,63.12
2023-08-07T08:14:00,mcc,76.99
2023-08-07T08:15:00,mcc,64.52
2023-08-07T08:16:00,mcc,64.10
2023-08-07T08:17:00,mcc,64.91
2023-08-07T08:18:00,mcc,62.93
2023-08-07T08:19:00,mcc,70.61
2023-08-07T08:20:00,mcc,62.39
2023-08-07T08:21:00,mcc,62.59
2023-08-07T08:22:00,mcc,62.14
2023-08-07T08:23:00,mcc,63.41
2023-08-07T08:24:00,mcc,64.83
2023-08-07T08:25:00,mcc,74.36
2023-08-07T08:26:00,mcc,68.22
2023-08-07T08:27:00,mcc,69.41
2023-08-07T08:28:00,mcc,80.78
2023-08-07T08:29:00,mcc,79.81
2023-08-07T08:30:00,mcc,77.79
2023-08-07T08:31:00,mcc,86.00
2023-08-07T08:32:00,mcc,68.70
2023-08-07T08:33:00,mcc,68.56
2023-08-07T08:34:00,mcc,67.56
2023-08-07T08:35:00,mcc,67.26
2023-08-07T08:36:00,mcc,70.00
2023-08-07T08:37:00,mcc,82.50
2023-08-07T08:38:00,mcc,65.91
2023-08-07T08:39:00,mcc,65.85
2023-08-07T08:40:00,mcc,71.75
2023-08-07T08:41:00,mcc,73.23
2023-08-07T08:42:00,mcc,71.95
2023-08-07T08:43:00,mcc,80.81
2023-08-07T08:44:00,mcc,73.34
2023-08-07T08:45:00,mcc,71.73
2023-08-07T08:46:00,mcc,71.67
2023-08-07T08:47:00,mcc,70.54
2023-08-07T08:48:00,mcc,71.53
2023-08-07T08:49:00,mcc,69.71
2023-08-07T08:50:00,mcc,69.14
2023-08-07T08:51:00,mcc,69.84
2023-08-07T08:52:00,mcc,71.15
2023-08-07T08:53:00,mcc,71.65
2023-08-07T08:54:00,mcc,73.68
2023-08-07T08:55:00,mcc,71.47
2023-08-07T08:56:00,mcc,80.28
2023-08-07T08:57:00,mcc,75.07
2023-08-07T08:58:00,mcc,75.57
2023-08-07T08:59:00,mcc,76.47
2023-08-07T09:00:00,mcc,86.25
2023-08-07T09:01:00,mcc,85.74
2023-08-07T09:02:00,mcc,94.88
2023-08-07T09:03:00,mcc,82.24
2023-08-07T09:04:00,mcc,81.90
2023-08-07T09:05:00,mcc,81.75
2023-08-07T09:06:00,mcc,74.07
2023-08-07T09:07:00,mcc,70.48
2023-08-07T09:08:00,mcc,78.60
2023-08-07T09:09:00,mcc,89.06
2023-08-07T09:10:00,mcc,72.66
2023-08-07T09:11:00,mcc,80.64
2023-08-07T09:12:00,mcc,72.00
2023-08-07T09:13:00,mcc,71.72
2023-08-07T09:14:00,mcc,80.63
2023-08-07T09:15:00,mcc,72.71
2023-08-07T09:16:00,mcc,72.72
2023-08-07T09:17:00,mcc,73.20
2023-08-07T09:18:00,mcc,72.45
2023-08-07T09:19:00,mcc,70.20
2023-08-07T09:20:00,mcc,69.90
2023-08-07T09:21:00,mcc,72.62
2023-08-07T09:22:00,mcc,73.16
2023-08-07T09:23:00,mcc,73.77
2023-08-07T09:24:00,mcc,73.06
2023-08-07T09:25:00,mcc,75.50
2023-08-07T09:26:00,mcc,74.80
2023-08-07T09:27:00,mcc,73.93
2023-08-07T09:28:00,mcc,83.29
2023-08-07T09:29:00,mcc,75.44
2023-08-07T09:30:00,mcc,75.53
2023-08-07T09:31:00,mcc,75.87
2023-08-07T09:32:00,mcc,75.61
2023-08-07T09:33:00,mcc,73.64
2023-08-07T09:34:00,mcc,74.54
2023-08-07T09:35:00,mcc,74.41
2023-08-07T09:36:00,mcc,75.31
2023-08-07T09:37:00,mcc,72.92
2023-08-07T09:38:00,mcc,71.94
2023-08-07T09:39:00,mcc,78.75
2023-08-07T09:40:00,mcc,71.24
2023-08-07T09:41:00,mcc,71.36
2023-08-07T09:42:00,mcc,70.67
2023-08-07T09:43:00,mcc,71.31
2023-08-07T09:44:00,mcc,78.86
2023-08-07T09:45:00,mcc,87.30
2023-08-07T09:46:00,mcc,71.63
2023-08-07T09:47:00,mcc,72.26
2023-08-07T09:48:00,mcc,72.19
2023-08-07T09:49:00,mcc,72.91
2023-08-07T09:50:00,mcc,71.25
2023-08-07T09:51:00,mcc,77.21
2023-08-07T09:52:00,mcc,69.31
2023-08-07T09:53:00,mcc,71.52
2023-08-07T09:54:00,mcc,72.62
2023-08-07T09:55:00,mcc,74.92
2023-08-07T09:56:00,mcc,75.44
2023-08-07T09:57:00,mcc,82.70
2023-08-07T09:58:00,mcc,73.82
2023-08-07T09:59:00,mcc,74.01
2023-08-07T10:00:00,mcc,75.34
2023-08-07T10:01:00,mcc,75.32
2023-08-07T10:02:00,mcc,75.43
2023-08-07T10:03:00,mcc,86.25
2023-08-07T10:04:00,mcc,76.89
2023-08-07T10:05:00,mcc,75.08
2023-08-07T10:06:00,mcc,73.89
2023-08-07T10:07:00,mcc,74.24
2023-08-07T10:08:00,mcc,74.32
2023-08-07T10:09:00,mcc,81.32
2023-08-07T10:10:00,mcc,81.43
2023-08-07T10:11:00,mcc,71.29
2023-08-07T10:12:00,mcc,71.42
2023-08-07T10:13:00,mcc,71.59
2023-08-07T10:14:00,mcc,72.65
2023-08-07T10:15:00,mcc,83.28
2023-08-07T10:16:00,mcc,82.64
2023-08-07T10:17:00,mcc,75.83
2023-08-07T10:18:00,mcc,74.54
2023-08-07T10:19:00,mcc,74.89
2023-08-07T10:20:00,mcc,74.73
2023-08-07T10:21:00,mcc,76.56
2023-08-07T10:22:00,mcc,84.33
2023-08-07T10:23:00,mcc,83.92
2023-08-07T10:24:00,mcc,76.76
2023-08-07T10:25:00,mcc,76.42
2023-08-07T10:26:00,mcc,76.27
2023-08-07T10:27:00,mcc,82.59
2023-08-07T10:28:00,mcc,81.36
2023-08-07T10:29:00,mcc,73.47
2023-08-07T10:30:00,mcc,73.43
2023-08-07T10:31:00,mcc,81.62
2023-08-07T10:32:00,mcc,74.50
2023-08-07T10:33:00,mcc,75.29
2023-08-07T10:34:00,mcc,75.30
2023-08-07T10:35:00,mcc,84.57
2023-08-07T10:36:00,mcc,73.26
2023-08-07T10:37:00,mcc,79.90
2023-08-07T10:38:00,mcc,81.30
2023-08-07T10:39:00,mcc,73.34
2023-08-07T10:40:00,mcc,74.58
2023-08-07T10:41:00,mcc,75.19
2023-08-07T10:42:00,mcc,75.24
2023-08-07T10:43:00,mcc,82.34
2023-08-07T10:44:00,mcc,73.63
2023-08-07T10:45:00,mcc,74.16
2023-08-07T10:46:00,mcc,75.50
2023-08-07T10:47:00,mcc,78.05
2023-08-07T10:48:00,mcc,78.61
2023-08-07T10:49:00,mcc,81.46
2023-08-07T10:50:00,mcc,77.58
2023-08-07T10:51:00,mcc,85.34
2023-08-07T10:52:00,mcc,79.01
2023-08-07T10:53:00,mcc,75.77
2023-08-07T10:54:00,mcc,73.22
2023-08-07T10:55:00,mcc,81.88
2023-08-07T10:56:00,mcc,73.41
2023-08-07T10:57:00,mcc,79.56
2023-08-07T10:58:00,mcc,77.50
2023-08-07T10:59:00,mcc,70.41
2023-08-07T11:00:00,mcc,70.31
2023-08-07T11:01:00,mcc,78.96
2023-08-07T11:02:00,mcc,80.75
2023-08-07T11:03:00,mcc,81.29
2023-08-07T11:04:00,mcc,73.64
2023-08-07T11:05:00,mcc,73.48
2023-08-07T11:06:00,mcc,73.48
2023-08-07T11:07:00,mcc,89.56
2023-08-07T11:08:00,mcc,74.23
2023-08-07T11:09:00,mcc,71.85
2023-08-07T11:10:00,mcc,71.20
2023-08-07T11:11:00,mcc,79.75
2023-08-07T11:12:00,mcc,72.65
2023-08-07T11:13:00,mcc,82.32
2023-08-07T11:14:00,mcc,75.29
2023-08-07T11:15:00,mcc,82.41
2023-08-07T11:16:00,mcc,82.71
2023-08-07T11:17:00,mcc,72.81
2023-08-07T11:18:00,mcc,73.69
2023-08-07T11:19:00,mcc,74.03
2023-08-07T11:20:00,mcc,72.90
2023-08-07T11:21:00,mcc,74.49
2023-08-07T11:22:00,mcc,76.38
2023-08-07T11:23:00,mcc,76.24
2023-08-07T11:24:00,mcc,76.52
2023-08-07T11:25:00,mcc,83.67
2023-08-07T11:26:00,mcc,78.28
2023-08-07T11:27:00,mcc,80.32
2023-08-07T11:28:00,mcc,79.15
2023-08-07T11:29:00,mcc,78.50
2023-08-07T11:30:00,mcc,76.30
2023-08-07T11:31:00,mcc,93.36
2023-08-07T11:32:00,mcc,79.66
2023-08-07T11:33:00,mcc,79.58
2023-08-07T11:34:00,mcc,81.50
2023-08-07T11:35:00,mcc,80.31
2023-08-07T11:36:00,mcc,76.03
2023-08-07T11:37:00,mcc,83.65
2023-08-07T11:38:00,mcc,76.66
2023-08-07T11:39:00,mcc,74.85
2023-08-07T11:40:00,mcc,78.23
2023-08-07T11:41:00,mcc,77.92
2023-08-07T11:42:00,mcc,81.23
2023-08-07T11:43:00,mcc,86.69
2023-08-07T11:44:00,mcc,92.41
2023-08-07T11:45:00,mcc,75.92
2023-08-07T11:46:00,mcc,75.09
2023-08-07T11:47:00,mcc,75.53
2023-08-07T11:48:00,mcc,74.87
2023-08-07T11:49:00,mcc,91.29
2023-08-07T11:50:00,mcc,75.23
2023-08-07T11:51:00,mcc,75.06
2023-08-07T11:52:00,mcc,73.91
2023-08-07T11:53:00,mcc,74.02
2023-08-07T11:54:00,mcc,73.32
2023-08-07T11:55:00,mcc,74.22
2023-08-07T11:56:00,mcc,72.80
2023-08-07T11:57:00,mcc,72.84
2023-08-07T11:58:00,mcc,73.05
2023-08-07T11:59:00,mcc,73.75
2023-08-07T12:00:00,mcc,79.17
2023-08-07T12:01:00,mcc,78.12
2023-08-07T12:02:00,mcc,79.29
2023-08-07T12:03:00,mcc,78.69
2023-08-07T12:04:00,mcc,77.16
2023-08-07T12:05:00,mcc,77.93
2023-08-07T12:06:00,mcc,87.76
2023-08-07T12:07:00,mcc,78.48
2023-08-07T12:08:00,mcc,86.10
2023-08-07T12:09:00,mcc,76.64
2023-08-07T12:10:00,mcc,76.27
2023-08-07T12:11:00,mcc,75.99
2023-08-07T12:12:00,mcc,77.43
2023-08-07T12:13:00,mcc,77.20
2023-08-07T12:14:00,mcc,84.47
2023-08-07T12:15:00,mcc,83.11
2023-08-07T12:16:00,mcc,75.66
2023-08-07T12:17:00,mcc,74.40
2023-08-07T12:18:00,mcc,75.02
2023-08-07T12:19:00,mcc,73.50
2023-08-07T12:20:00,mcc,81.70
2023-08-07T12:21:00,mcc,73.62
2023-08-07T12:22:00,mcc,73.63
2023-08-07T12:23:00,mcc,77.33
2023-08-07T12:24:00,mcc,76.14
2023-08-07T12:25:00,mcc,75.23
2023-08-07T12:26:00,mcc,82.30
2023-08-07T12:27:00,mcc,76.19
2023-08-07T12:28:00,mcc,76.10
2023-08-07T12:29:00,mcc,76.27
2023-08-07T12:30:00,mcc,75.72
2023-08-07T12:31:00,mcc,76.85
2023-08-07T12:32:00,mcc,75.80
2023-08-07T12:33:00,mcc,75.31
2023-08-07T12:34:00,mcc,77.16
2023-08-07T12:35:00,mcc,75.45
2023-08-07T12:36:00,mcc,74.03
2023-08-07T12:37:00,mcc,83.06
2023-08-07T12:38:00,mcc,75.28
2023-08-07T12:39:00,mcc,76.40
2023-08-07T12:40:00,mcc,75.36
2023-08-07T12:41:00,mcc,74.14
2023-08-07T12:42:00,mcc,74.18
2023-08-07T12:43:00,mcc,74.82
2023-08-07T12:44:00,mcc,69.33
2023-08-07T12:45:00,mcc,68.96
2023-08-07T12:46:00,mcc,68.25
2023-08-07T12:47:00,mcc,68.51
2023-08-07T12:48:00,mcc,68.10
2023-08-07T12:49:00,mcc,67.81
2023-08-07T12:50:00,mcc,67.01
2023-08-07T12:51:00,mcc,67.40
2023-08-07T12:52:00,mcc,67.29
2023-08-07T12:53:00,mcc,69.07
2023-08-07T12:54:00,mcc,71.04
2023-08-07T12:55:00,mcc,72.09
2023-08-07T12:56:00,mcc,71.64
2023-08-07T12:57:00,mcc,71.94
2023-08-07T12:58:00,mcc,70.96
2023-08-07T12:59:00,mcc,70.51
2023-08-07T13:00:00,mcc,77.38
2023-08-07T13:01:00,mcc,70.45
2023-08-07T13:02:00,mcc,80.59
2023-08-07T13:03:00,mcc,84.13
2023-08-07T13:04:00,mcc,86.91
2023-08-07T13:05:00,mcc,83.42
2023-08-07T13:06:00,mcc,92.53
2023-08-07T13:07:00,mcc,76.30
2023-08-07T13:08:00,mcc,74.10
2023-08-07T13:09:00,mcc,73.96
2023-08-07T13:10:00,mcc,67.28
2023-08-07T13:11:00,mcc,70.54
2023-08-07T13:12:00,mcc,70.44
2023-08-07T13:13:00,mcc,72.68
2023-08-07T13:14:00,mcc,68.82
2023-08-07T13:15:00,mcc,68.67
2023-08-07T13:16:00,mcc,68.40
2023-08-07T13:17:00,mcc,69.22
2023-08-07T13:18:00,mcc,83.27